Starlink 4750

operational
NORAD ID: 53841 Int'l Des: 2022-114 Owner: SPXS Country: US Constellation: starlink
LEOCIRCULAR

Starlink 4750について

説明を読み込み中...

リアルタイム位置

3D地球を読み込み中...

次回通過

高度履歴

Altitude vs Time

uPlot chart will show altitude changes over time

軌道要素

1 53841U 22114Z 25306.26928125 .00002367 00000-0 16677-3 0 9990
2 53841 53.2155 146.2630 0001332 84.4778 275.6366 15.08831267173730
Epoch: Nov 2, 2025 • Age: 23 hours

現在のステータス

高度 546.9 km
速度 7.59 km/s
衛星直下点 -23.16°S, 146.9°W
打ち上げ日 Sep 19, 2022
運用期間 3.1 years
タイプ internet

技術仕様

分類 Payload
質量 305.00 kg
乾燥質量 290.00 kg
総質量 305.00 kg
長さ 0.20 m
直径 2.80 m
スパン 9.00 m
形状 Box + pan
製造者 SPXS
バスタイプ Starlink
フェーズステータス In Orbit
所有者/国 SPXS/US

大規模コンステレーション

Loading constellations...